Temperature
6 6 6 6 6 6 6 6 6 6 6 7 7 7 7 7 7 7 6 6 6 6 6 6 6 5 5 5 5 5 5 4 4 4 4 4 4 4 4 4 4 4 4
5 5 6 6 6 6 6 6 6 6 6 6 6 6 6 6 6 6 6 6 6 6 6 6 5 5 5 5 5 4 4 4 4 4 4 4 4 4 4 4 4 4 4
5 5 5 5 5 5 5 5 5 5 5 6 6 6 6 6 6 6 6 6 6 5 5 5 5 5 5 5 4 4 4 4 3 3 4 4 4 4 4 4 4 4 4
4 4 4 5 5 5 5 5 5 5 5 5 5 5 5 5 5 5 5 5 5 5 5 5 5 5 5 4 4 4 3 3 3 3 3 3 3 3 3 3 4 4 4
4 4 4 4 4 4 4 4 4 4 4 5 4 5 5 5 5 5 5 5 5 5 5 4 4 4 4 4 4 4 3 3 3 3 3 3 3 3 3 3 3 3 3
4 4 3 3 3 3 4 4 4 4 4 4 4 4 4 4 4 4 4 4 4 4 4 4 4 4 4 4 4 3 3 3 3 3 3 2 3 2 2 2 2 2 2
3 3 3 3 3 3 3 3 3 3 3 4 4 4 4 4 4 4 4 4 4 4 4 4 4 4 4 4 3 3 3 3 2 2 2 2 2 2 2 2 2 2 2
2 3 2 3 3 3 3 3 3 3 3 3 3 3 3 3 3 3 3 3 3 3 3 3 3 3 3 3 3 3 3 3 2 2 2 2 2 2 2 2 2 2 2
2 2 2 2 2 2 2 2 2 2 2 2 2 2 3 3 3 3 3 2 3 3 3 3 3 3 3 3 3 3 3 3 2 2 2 2 2 2 2 2 2 1 2
1 1 1 1 2 2 2 2 2 2 2 2 2 2 2 2 2 2 2 2 2 3 3 2 2 2 2 2 2 2 2 2 2 2 2 2 2 2 2 1 1 1 1
1 1 1 1 1 1 1 1 1 1 1 1 1 1 1 1 1 2 2 2 2 2 2 2 2 2 2 2 2 2 2 1 2 2 2 2 2 2 1 1 1 1 1
0 0 0 0 0 0 1 1 1 1 1 1 1 1 1 1 1 1 1 1 1 1 2 2 2 2 2 2 1 1 1 1 1 1 1 2 1 1 1 1 1 1 1
-0 -0 -0 -0 -0 -0 0 0 0 0 0 0 0 0 0 0 1 1 1 1 1 1 1 1 1 1 1 1 1 1 1 1 1 1 1 1 1 1 1 1 1 1 1
-1 -1 -1 -1 -1 -1 -1 -1 -0 -0 -0 -0 -0 -0 -0 -0 -0 -0 0 0 0 0 1 1 1 1 1 1 1 1 1 1 1 1 1 1 1 1 1 1 1 1 1
-1 -1 -1 -1 -1 -1 -1 -1 -1 -1 -1 -1 -1 -1 -1 -0 -0 -1 -1 -0 -0 -0 0 0 0 1 1 1 1 1 1 0 0 0 0 0 0 0 0 0 0 0 0
-2 -2 -2 -2 -2 -2 -2 -2 -2 -2 -2 -2 -2 -1 -1 -1 -1 -1 -1 -1 -1 -1 -1 -0 -0 0 0 0 0 0 0 0 0 -0 -0 0 -0 -0 -0 -0 -0 -0 -0
-3 -3 -3 -3 -3 -3 -2 -2 -2 -2 -2 -2 -2 -2 -2 -2 -2 -1 -1 -1 -1 -1 -1 -1 -1 -1 -0 -0 -0 -0 -0 -0 -0 -0 -0 -0 -0 -0 -0 -0 -0 -0 -0
-3 -3 -3 -3 -3 -3 -3 -3 -3 -3 -2 -2 -2 -2 -2 -2 -2 -2 -2 -1 -1 -1 -1 -1 -1 -1 -1 -1 -1 -0 -0 -0 -0 -0 -0 -0 -0 -0 -0 -0 -0 -1 -1
-3 -4 -4 -4 -4 -4 -4 -3 -3 -3 -3 -3 -3 -2 -2 -2 -2 -2 -2 -2 -2 -2 -2 -2 -2 -1 -1 -1 -1 -1 -1 -1 -1 -1 -0 -0 -0 -0 -0 -1 -1 -1 -1
-4 -4 -4 -4 -4 -4 -4 -4 -4 -4 -4 -3 -3 -3 -3 -3 -2 -2 -2 -2 -2 -2 -2 -2 -2 -2 -2 -1 -1 -1 -1 -1 -1 -1 -1 -1 -0 -0 -1 -1 -1 -1 -1
-4 -4 -4 -5 -4 -5 -5 -4 -4 -4 -4 -4 -3 -3 -3 -3 -3 -3 -3 -3 -3 -3 -3 -2 -2 -2 -2 -2 -2 -1 -1 -1 -1 -1 -1 -1 -1 -1 -1 -1 -1 -1 -1
-5 -5 -5 -5 -5 -5 -5 -5 -5 -4 -4 -4 -4 -4 -4 -4 -4 -3 -3 -3 -3 -3 -3 -3 -3 -2 -2 -2 -2 -2 -2 -2 -1 -1 -1 -1 -1 -1 -1 -1 -1 -1 -1
-5 -5 -5 -5 -5 -5 -5 -5 -5 -5 -5 -5 -5 -4 -4 -4 -4 -4 -4 -3 -3 -3 -3 -3 -3 -3 -3 -2 -2 -2 -2 -2 -2 -2 -2 -1 -1 -1 -1 -1 -1 -1 -2
-6 -6 -6 -6 -6 -6 -6 -5 -5 -5 -5 -5 -5 -5 -4 -4 -4 -4 -4 -4 -4 -4 -4 -4 -3 -3 -3 -2 -2 -2 -2 -2 -2 -2 -2 -2 -2 -1 -1 -2 -2 -2 -2
-6 -6 -6 -6 -6 -6 -6 -6 -6 -6 -6 -6 -5 -5 -5 -5 -4 -4 -4 -4 -4 -4 -4 -4 -4 -3 -3 -3 -3 -3 -2 -2 -2 -2 -2 -2 -2 -2 -2 -2 -2 -2 -2
-7 -7 -7 -7 -7 -7 -6 -6 -6 -6 -6 -6 -6 -6 -5 -5 -5 -5 -5 -4 -4 -4 -4 -4 -4 -3 -3 -3 -3 -3 -3 -3 -2 -2 -2 -2 -2 -2 -2 -2 -2 -2 -2
Wind_Speed
1 1 1 1 1 1 1 1 1 0 0 0 1 1 1 1 1 1 1 1 2 2 2 2 3 2 2 2 1 1 1 1 4 4 3 4 4 4 5 6 7 6 7
0 1 1 1 1 1 1 0 0 0 1 1 1 1 1 1 1 2 2 2 2 2 2 2 3 2 2 2 2 2 2 2 2 5 5 4 4 4 4 4 5 6 6
0 1 1 1 1 0 1 1 1 1 1 1 1 1 1 1 2 2 2 2 3 3 3 3 3 2 3 3 3 3 2 2 2 3 5 4 3 3 4 5 5 4 6
0 0 0 0 0 0 1 1 1 1 1 1 1 1 1 2 2 1 1 1 2 2 3 3 3 3 4 4 3 3 2 2 2 2 4 4 3 3 3 4 5 4 5
0 0 1 1 0 0 1 1 1 1 1 1 1 2 1 2 2 1 1 1 1 2 3 3 3 3 3 3 2 2 1 1 2 2 3 3 3 3 4 3 4 5 5
1 1 1 0 0 1 1 1 1 1 2 2 1 1 2 2 3 1 0 1 1 2 3 3 3 2 3 3 2 2 1 2 2 2 3 3 4 4 4 3 3 4 4
0 1 1 0 1 1 1 1 1 1 1 2 2 2 3 3 3 2 1 1 1 2 2 2 2 2 2 2 2 2 2 2 3 3 3 4 4 4 3 3 3 4 4
1 1 1 1 1 1 1 1 1 2 2 2 2 2 2 4 4 2 2 1 1 2 2 2 3 2 2 1 1 2 2 3 3 3 3 3 3 3 3 3 3 3 3
1 1 2 1 2 1 2 2 2 2 2 2 2 2 2 4 4 2 1 1 1 2 2 2 2 3 3 1 1 1 3 3 3 3 3 3 3 2 1 1 2 2 4
2 2 2 2 2 2 2 2 2 2 2 2 2 2 3 3 4 2 1 1 1 2 2 2 2 3 3 1 1 1 2 3 2 2 2 3 2 1 2 1 1 2 3
2 2 2 2 2 2 1 1 1 1 1 1 2 2 2 3 3 3 2 1 2 2 2 2 2 3 3 3 1 1 2 2 1 1 1 2 2 2 2 2 1 2 2
2 2 2 2 2 2 1 1 1 1 1 1 1 2 2 2 3 3 2 2 2 2 2 2 2 2 2 2 2 2 1 1 1 0 1 1 2 3 3 3 2 2 1
2 2 2 2 2 2 1 1 1 1 1 2 2 2 3 2 3 3 3 3 2 1 2 2 2 2 2 2 1 1 1 0 0 0 1 2 2 2 2 2 3 3 4
2 2 2 2 2 2 2 1 1 1 2 2 2 2 3 3 2 2 2 2 2 1 1 1 1 1 1 1 1 1 1 0 0 1 1 2 2 1 2 2 2 3 3
2 2 2 2 2 2 2 2 2 2 3 3 3 3 3 3 4 4 2 2 1 0 1 0 0 0 0 1 1 1 1 1 1 1 1 1 1 2 2 2 2 2 2
2 2 2 2 2 2 2 2 3 3 4 4 4 3 3 4 5 4 4 2 1 1 1 0 0 0 1 1 1 1 1 1 1 1 1 1 1 1 2 2 2 2 2
3 3 2 2 2 2 2 2 2 3 4 4 4 4 4 4 3 3 2 1 1 2 1 0 1 1 1 1 1 1 2 1 1 1 1 1 1 1 1 1 1 2 2
3 3 3 2 2 2 2 2 2 2 3 4 4 5 5 4 3 2 1 0 1 1 1 1 1 1 1 1 1 1 1 1 1 1 1 1 1 1 1 1 1 1 2
3 2 2 2 2 2 2 2 2 2 3 3 3 4 4 4 3 2 1 0 1 1 1 1 1 1 1 2 2 1 1 1 1 1 1 1 1 1 1 1 1 1 1
3 4 3 2 2 2 2 2 2 2 2 2 3 3 3 2 2 2 2 1 1 1 2 2 2 2 2 2 1 1 1 1 1 1 1 1 1 1 1 1 1 1 1
3 3 4 3 2 2 2 2 2 2 3 3 3 3 3 2 2 2 2 2 2 2 2 2 2 2 2 1 2 2 2 2 2 1 1 1 1 1 1 1 1 1 0
3 3 3 3 3 2 3 2 2 3 3 3 3 3 4 2 2 2 2 2 2 2 2 2 2 2 2 2 2 2 2 2 2 2 2 2 1 1 1 1 1 1 0
3 3 3 3 3 4 3 2 2 3 3 3 3 2 2 2 2 2 3 2 2 2 2 2 2 2 2 3 3 3 3 3 3 3 2 2 2 1 1 1 1 1 1
3 3 3 3 2 2 3 3 3 3 3 3 3 2 2 2 3 3 3 2 2 3 2 2 3 3 3 3 3 4 4 4 3 3 3 2 2 2 2 1 1 1 1
2 3 3 3 3 3 3 3 3 3 3 3 3 3 2 2 3 3 3 2 3 3 3 3 3 3 4 4 4 4 4 4 3 2 3 2 2 2 2 1 1 1 0
3 3 3 3 3 3 3 3 3 3 3 3 3 3 3 3 3 3 3 2 3 3 3 3 4 4 4 4 4 4 4 4 4 3 3 3 2 2 1 1 1 1 1
Wind_Direction
46 75 86 108 112 104 124 149 145 43 37 175 252 225 213 211 222 205 216 209 212 244 256 244 246 246 246 255 248 248 265 257 286 298 301 311 312 317 326 330 331 333 340
284 92 88 86 94 89 82 51 33 72 323 307 294 247 235 234 222 209 217 215 226 241 251 259 266 254 247 252 249 252 257 259 276 301 312 314 311 310 322 333 340 339 340
20 104 66 72 85 70 17 6 13 15 345 342 327 275 265 265 243 226 216 221 234 245 245 246 259 256 251 260 259 258 263 282 291 292 303 310 317 326 337 336 337 340 340
24 118 166 227 210 292 355 4 2 354 337 309 296 279 277 280 262 243 225 239 249 260 260 255 252 251 250 252 256 259 270 289 306 299 309 315 319 323 329 334 335 340 336
306 273 247 246 308 5 351 342 3 351 331 317 322 317 307 277 266 270 229 256 264 273 276 270 269 271 290 265 263 262 257 279 295 299 308 319 320 327 320 317 319 328 327
238 260 282 305 339 328 319 343 1 349 344 342 318 304 294 284 291 299 280 228 258 272 277 280 280 278 294 309 289 280 265 253 265 272 292 292 297 308 311 312 318 325 317
353 354 338 318 313 310 319 344 332 321 325 314 308 296 289 288 295 283 312 249 247 265 279 280 287 290 311 282 300 307 286 286 264 250 259 275 279 282 281 298 307 311 296
20 359 343 317 284 302 302 291 295 302 293 284 288 287 291 295 300 297 305 292 257 262 266 269 273 273 280 307 313 318 285 276 285 276 253 266 276 276 260 262 278 307 300
353 327 316 303 275 265 267 268 279 286 291 286 283 280 284 292 298 299 330 269 265 275 281 277 283 275 277 311 311 309 304 294 319 324 333 341 339 336 359 10 330 325 316
299 296 301 300 276 257 259 270 278 269 274 289 296 282 275 283 292 292 306 255 264 282 288 278 281 294 297 302 260 262 291 290 298 330 351 353 355 349 7 2 275 293 310
313 311 318 316 292 270 272 284 284 283 286 287 298 305 294 293 294 290 288 266 252 259 268 275 279 297 308 307 309 271 283 313 297 306 326 343 354 356 357 354 330 286 275
325 321 321 320 310 315 313 299 289 281 279 282 302 311 308 304 300 292 294 285 287 259 268 275 285 299 300 301 303 318 357 28 357 58 2 344 344 341 339 348 356 6 350
327 318 315 318 319 322 307 290 296 280 269 272 273 282 296 307 303 301 293 281 286 284 276 289 298 303 297 295 320 358 47 18 287 341 321 321 321 318 341 353 5 18 22
310 311 313 310 315 320 310 293 275 263 264 269 271 273 286 293 292 287 283 280 277 298 293 290 323 351 6 359 1 356 345 318 310 281 321 337 346 351 350 342 336 343 353
295 299 307 306 298 302 308 298 287 273 266 268 265 260 264 274 285 297 293 280 264 283 36 18 29 59 28 3 12 14 4 358 1 352 346 352 357 359 346 345 347 352 357
294 296 296 299 302 307 316 332 335 321 321 321 313 291 283 290 296 292 294 296 301 156 110 182 210 229 249 290 301 319 326 330 334 349 356 348 329 325 338 346 355 358 357
277 283 287 289 291 297 299 300 317 334 340 335 327 317 303 302 302 296 294 282 225 157 139 217 242 244 263 278 286 286 294 307 316 305 329 322 301 301 325 334 347 354 356
287 282 283 274 273 275 280 286 285 293 309 316 322 323 323 317 314 310 291 225 233 216 236 235 250 251 251 256 266 284 302 317 319 307 299 315 281 266 287 300 305 333 340
291 281 275 271 270 267 272 275 279 283 290 304 318 321 329 331 335 327 318 285 240 257 255 251 253 252 256 252 259 272 277 276 287 292 281 282 289 283 272 272 279 316 348
288 284 286 277 269 267 268 269 270 272 281 290 297 304 318 326 320 321 315 322 294 277 261 253 248 246 245 243 251 256 268 274 276 283 284 277 280 283 255 238 245 264 298
287 284 283 283 267 261 261 261 264 267 272 278 286 295 309 298 294 295 291 280 268 266 271 272 263 248 242 243 242 248 254 262 267 276 276 273 274 285 287 252 225 245 297
281 278 268 261 260 258 260 259 259 264 271 276 292 301 302 304 295 285 284 284 276 271 265 264 270 258 237 235 237 242 249 257 261 268 276 274 269 267 266 271 231 218 228
276 275 271 265 263 263 270 266 262 264 269 274 281 288 289 287 288 286 282 287 289 281 275 264 260 268 270 262 249 234 239 244 249 242 244 248 252 246 241 237 235 223 216
276 274 272 269 264 259 261 263 263 266 268 271 274 272 271 275 281 283 285 281 285 286 281 271 261 259 267 274 261 249 247 249 245 220 209 220 226 230 233 235 231 241 219
274 273 273 269 263 260 261 264 266 268 270 270 268 271 273 276 281 285 285 287 286 283 287 284 274 266 264 266 264 261 256 246 236 222 200 187 206 215 218 220 216 207 227
276 274 273 270 263 257 256 258 261 262 265 268 267 268 271 273 276 280 285 286 291 290 290 289 282 277 273 265 259 260 251 236 223 204 180 173 189 206 205 193 177 167 167
Height
1496 1496 1496 1497 1497 1498 1498 1498 1499 1499 1499 1500 1500 1500 1501 1501 1501 1501 1502 1502 1502 1501 1501 1501 1500 1500 1499 1499 1498 1497 1496 1494 1491 1488 1487 1485 1483 1481 1478 1476 1473 1470 1468
1494 1495 1495 1495 1495 1495 1496 1496 1496 1497 1497 1497 1498 1498 1498 1498 1498 1498 1499 1499 1498 1498 1498 1497 1497 1497 1496 1495 1495 1494 1493 1491 1490 1486 1484 1482 1480 1478 1476 1474 1471 1469 1466
1493 1493 1493 1493 1493 1493 1493 1494 1494 1494 1495 1495 1495 1495 1495 1495 1495 1495 1495 1495 1495 1495 1495 1494 1494 1493 1493 1492 1491 1490 1489 1488 1487 1484 1481 1480 1478 1476 1474 1471 1469 1467 1465
1491 1491 1491 1491 1491 1491 1491 1491 1491 1492 1492 1492 1492 1492 1492 1492 1492 1492 1492 1492 1492 1492 1491 1491 1490 1490 1489 1489 1488 1487 1486 1485 1484 1482 1479 1477 1475 1474 1472 1469 1466 1464 1462
1489 1489 1489 1489 1489 1489 1489 1489 1489 1489 1489 1489 1489 1489 1489 1489 1489 1489 1489 1489 1489 1488 1488 1487 1487 1487 1486 1485 1484 1483 1482 1481 1480 1479 1476 1474 1472 1471 1469 1467 1465 1463 1460
1487 1487 1487 1487 1487 1486 1486 1486 1486 1486 1486 1486 1486 1486 1486 1486 1486 1486 1486 1485 1485 1485 1484 1484 1484 1483 1483 1482 1481 1480 1480 1478 1477 1475 1474 1472 1470 1469 1468 1466 1464 1461 1458
1484 1484 1485 1485 1484 1484 1484 1484 1483 1483 1483 1483 1483 1483 1483 1483 1483 1483 1483 1482 1482 1481 1481 1481 1480 1480 1479 1479 1478 1477 1476 1475 1474 1473 1471 1469 1468 1467 1466 1464 1462 1460 1458
1482 1482 1482 1482 1482 1482 1482 1481 1481 1481 1480 1480 1480 1480 1480 1480 1480 1480 1480 1479 1479 1478 1478 1477 1477 1476 1476 1475 1474 1473 1472 1471 1471 1469 1469 1468 1467 1465 1464 1462 1460 1458 1456
1480 1479 1480 1480 1479 1479 1479 1479 1478 1478 1478 1477 1477 1477 1477 1477 1477 1477 1477 1476 1475 1475 1474 1474 1474 1473 1473 1472 1471 1470 1469 1468 1467 1467 1466 1465 1464 1463 1462 1460 1458 1456 1453
1477 1477 1477 1477 1476 1476 1476 1476 1476 1475 1475 1474 1474 1474 1474 1473 1474 1474 1474 1473 1472 1472 1471 1471 1470 1470 1470 1469 1468 1467 1465 1465 1464 1463 1463 1462 1462 1460 1459 1458 1456 1454 1452
1475 1475 1474 1474 1474 1474 1473 1473 1473 1472 1472 1472 1471 1471 1471 1470 1470 1470 1470 1470 1469 1468 1468 1468 1467 1467 1466 1466 1465 1464 1463 1462 1461 1461 1460 1460 1459 1458 1457 1455 1454 1453 1451
1473 1472 1472 1471 1471 1470 1470 1470 1470 1470 1469 1468 1468 1468 1467 1467 1467 1467 1467 1467 1466 1466 1465 1465 1464 1464 1463 1463 1462 1462 1461 1460 1459 1458 1457 1457 1456 1455 1454 1453 1452 1451 1450
1471 1470 1469 1469 1468 1467 1467 1467 1467 1466 1466 1465 1465 1465 1464 1464 1464 1464 1464 1464 1463 1463 1462 1462 1461 1461 1461 1460 1460 1459 1458 1457 1456 1455 1455 1454 1454 1453 1453 1451 1450 1449 1448
1467 1467 1466 1466 1465 1465 1465 1465 1464 1464 1463 1463 1462 1462 1462 1462 1461 1461 1461 1461 1460 1460 1459 1459 1458 1458 1458 1457 1457 1456 1456 1455 1454 1454 1453 1452 1452 1451 1451 1450 1448 1447 1446
1465 1464 1464 1463 1462 1462 1462 1462 1461 1461 1461 1461 1460 1460 1459 1459 1459 1459 1458 1458 1457 1457 1456 1456 1455 1455 1455 1454 1454 1453 1453 1452 1452 1451 1451 1450 1450 1449 1449 1448 1447 1446 1445
1462 1461 1461 1460 1460 1459 1459 1459 1458 1459 1458 1458 1457 1457 1456 1457 1456 1456 1455 1455 1455 1454 1454 1453 1452 1452 1452 1451 1451 1451 1450 1450 1449 1449 1449 1449 1448 1448 1447 1446 1446 1445 1443
1459 1459 1458 1458 1457 1457 1456 1456 1455 1455 1455 1455 1454 1454 1454 1453 1453 1453 1452 1452 1452 1452 1451 1451 1450 1450 1449 1449 1449 1449 1448 1448 1448 1448 1447 1447 1447 1447 1446 1445 1444 1443 1442
1457 1456 1456 1455 1455 1455 1454 1454 1453 1452 1452 1451 1451 1451 1451 1450 1450 1450 1450 1450 1449 1449 1448 1448 1448 1448 1447 1447 1447 1447 1446 1446 1446 1446 1446 1445 1445 1445 1444 1444 1443 1442 1441
1454 1453 1453 1453 1452 1452 1451 1451 1451 1450 1449 1449 1448 1448 1448 1447 1447 1447 1447 1447 1446 1446 1446 1446 1446 1445 1445 1445 1445 1445 1445 1444 1444 1444 1444 1444 1443 1443 1443 1442 1442 1441 1440
1451 1451 1450 1450 1449 1449 1449 1448 1448 1447 1447 1446 1445 1445 1445 1445 1444 1444 1444 1443 1443 1443 1443 1443 1443 1443 1443 1443 1443 1443 1443 1443 1443 1442 1442 1442 1442 1442 1441 1441 1440 1439 1438
1449 1448 1447 1447 1446 1446 1445 1445 1444 1444 1444 1443 1443 1443 1442 1442 1441 1441 1441 1441 1441 1440 1441 1440 1440 1440 1440 1440 1440 1441 1441 1441 1441 1441 1441 1441 1441 1440 1440 1440 1439 1439 1438
1445 1444 1444 1443 1443 1443 1442 1442 1441 1441 1441 1440 1440 1440 1439 1439 1438 1438 1438 1438 1438 1438 1438 1438 1437 1438 1438 1438 1438 1438 1439 1439 1439 1439 1439 1439 1439 1439 1438 1438 1438 1437 1436
1442 1441 1440 1440 1440 1439 1439 1438 1438 1438 1437 1437 1437 1436 1436 1436 1435 1435 1435 1435 1435 1435 1435 1435 1435 1435 1435 1435 1436 1436 1436 1437 1437 1437 1437 1437 1437 1437 1437 1436 1436 1436 1435
1438 1438 1437 1437 1436 1436 1435 1435 1435 1434 1434 1433 1433 1433 1433 1433 1432 1432 1432 1432 1432 1432 1432 1432 1432 1432 1432 1433 1433 1434 1434 1435 1435 1435 1435 1435 1435 1435 1435 1435 1435 1434 1434
1435 1434 1434 1433 1433 1432 1432 1431 1431 1431 1430 1430 1430 1430 1429 1429 1429 1429 1429 1429 1429 1429 1429 1429 1429 1429 1430 1430 1431 1431 1431 1432 1432 1433 1433 1433 1433 1434 1434 1433 1433 1433 1432
1431 1431 1430 1430 1429 1429 1428 1428 1428 1427 1427 1427 1427 1426 1426 1426 1426 1426 1426 1426 1426 1426 1426 1426 1426 1427 1427 1427 1428 1428 1429 1429 1430 1430 1430 1431 1431 1431 1432 1432 1432 1431 1431